Regional Weather Roundup
Issued by NWS Grand Forks, ND

Home | Current Version | Previous Version | Text Only | Print | Product List | Glossary Off
Versions: 1 2 3 4 5 6 7 8 9 10 11 12 13 14 15 16 17 18 19 20 21 22 23 24 25 26 27 28 29 30 31 32 33 34 35 36 37 38 39 40 41 42 43 44 45 46 47 48 49 50

000
ASUS43 KFGF 040610
RWRFGF
PRAIRIE TO PINES  WEATHER ROUNDUP
NATIONAL WEATHER SERVICE EASTERN NORTH DAKOTA/GRAND FORKS ND
100 AM CDT FRI SEP 04 2015

 **SATELLITE DATA USED TO AUGMENT SKY COVER AT AUTOMATED STATIONS**
 *****  WEATHER ACROSS EASTERN NORTH DAKOTA  *****

CITY           SKY/WX    TMP DP  RH WIND       PRES   REMARKS
GRAND FORKS    CLOUDY    77  72  84 S15       29.76R
6HR MIN TEMP:  77; 6HR MAX TEMP:  89;

GRAND FRKS AFB CLOUDY    78  74  88 S12       29.77R
GRAND FRKS NWS   N/A     75 N/A N/A SE26        N/A
DEVILS LAKE    CLOUDY    77  66  69 SE6       29.73S
6HR MIN TEMP:  77; 6HR MAX TEMP:  88;

FARGO          MOCLDY    78  72  81 SE13      29.78F
WAHPETON ARPT  MOCLDY    75  70  83 SE12G18   29.80S
$$

 ***** WEATHER ACROSS CENTRAL AND WESTERN NORTH DAKOTA  *****

CITY           SKY/WX    TMP DP  RH WIND       PRES   REMARKS
BISMARCK       PTCLDY    79  69  71 S14       29.70R
6HR MIN TEMP:  78; 6HR MAX TEMP:  93;

MINOT          PTCLDY    68  62  81 NW9       29.71F
6HR MIN TEMP:  68; 6HR MAX TEMP:  86;

JAMESTOWN      PTCLDY    75  72  90 SE7       29.77S
6HR MIN TEMP:  75; 6HR MAX TEMP:  86;

MINOT AFB      MOCLDY    70  65  84 NW10      29.70F
GARRISON         N/A     72  68  87 CALM      29.72R
WILLISTON      CLOUDY    69  50  50 N17       29.80R
6HR MIN TEMP:  68; 6HR MAX TEMP:  82;

DICKINSON      PTCLDY    69  64  84 NE9       29.71F
6HR MIN TEMP:  69; 6HR MAX TEMP:  88;

HETTINGER      CLOUDY    72  53  51 E10       29.73R
6HR MIN TEMP:  68; 6HR MAX TEMP:  91;

$$

 *****  OTHER AIRPORT OBSERVATIONS IN OUR AREA  *****

CITY           SKY/WX    TMP DP  RH WIND       PRES   REMARKS
WALHALLA       FAIR      79  79 100 MISG      29.72S
GRAFTON AIRPOR FAIR      77  75  94 S10       29.77S
VALLEY CITY AR FAIR      75  75 100 S7        29.79R
CANDO          NOT AVBL
CAVALIER APRT  FAIR      79  73  83 S12G18    29.74S
GWINNER          N/A     75  75 100 SE10      29.79S
SHEYENNE NWR     N/A     76  74  93 SE9       29.95S
ROLLA          MOCLDY    77  57  50 SW8       29.74S
 ***** THE ABOVE OBSERVATIONS ARE NON NWS ARE NOT QUALITY
       CONTROLLED AND MAY MIS-REPORT RAIN FOR SNOW...
$$

  *****  WEATHER ACROSS NORTHERN MINNESOTA  *****

CITY           SKY/WX    TMP DP  RH WIND       PRES   REMARKS
FLAG ISLAND    CLEAR     72  64  78 S22       29.84S
WARROAD        MOCLDY    73  68  83 S17G24    29.83S
ROSEAU         CLOUDY    70  64  83 S15       29.82R
HALLOCK        CLOUDY    79  72  78 S14       29.77R
THF RVR FALLS  CLOUDY    73  70  88 SE9       29.83S
6HR MIN TEMP:  73; 6HR MAX TEMP:  84;

BAUDETTE       PTCLDY    67  62  84 SE9       29.88S
6HR MIN TEMP:  67; 6HR MAX TEMP:  81;

WASKISH        MOCLDY    70  64  83 E3        29.90R
CROOKSTON      CLOUDY    75  72  88 SE12      29.80S
STEPHEN NDAWN    N/A     77  72  83 S7          N/A
GREENBUSH NDAW   N/A     73  70  88 S13         N/A
$$
  *****  WEATHER ACROSS CENTRAL AND WEST MINNESOTA  *****

CITY           SKY/WX    TMP DP  RH WIND       PRES   REMARKS
FOSSTON        MOCLDY    72  66  83 SE8       29.86R
BEMIDJI        MOCLDY    68  66  93 SE10      29.90S
PARK RAPIDS    CLOUDY    73  67  81 SE12      29.90S
6HR MIN TEMP:  72; 6HR MAX TEMP:  82;

ELBOW LAKE     FAIR      74  72  93 SE12G18   29.83F
6HR MIN TEMP:  74; 6HR MAX TEMP:  83;

WADENA         CLOUDY    73  68  83 SE9       29.88S
DETROIT LAKES  CLOUDY    73  70  88 SE13      29.87S
MOORHEAD       MOCLDY    75  73  94 SE9       29.80S
FERGUS FALLS   MOCLDY    75  72  88 SE12G17   29.81S
MORRIS MN      MOCLDY    75  73  94 SE10      29.82S FOG
STAPLES        MOCLDY    72  66  83 E6        29.89F
$$
  *****  WEATHER ELSEWHERE ACROSS MINNESOTA  *****

CITY           SKY/WX    TMP DP  RH WIND       PRES   REMARKS
DULUTH         CLEAR     58  53  84 E9        29.99S
6HR MIN TEMP:  57; 6HR MAX TEMP:  65;

INTRNTL FALLS  CLEAR     61  55  81 SE5       29.94R
6HR MIN TEMP:  60; 6HR MAX TEMP:  78;

ELY            CLEAR     57  52  82 CALM      30.01S
CLOQUET        FAIR      55  52  88 E3        29.99R
WHEATON        MOCLDY    73  72  94 SE10      29.81F
BRAINERD       MOCLDY    67  65  93 VRB3      29.92S
6HR MIN TEMP:  67; 6HR MAX TEMP:  79;

HIBBING        CLEAR     54  50  86 CALM      29.98S
6HR MIN TEMP:  53; 6HR MAX TEMP:  73;

ALEXANDRIA     PTCLDY    73  71  93 SE12      29.88S
6HR MIN TEMP:  73; 6HR MAX TEMP:  82;

SAINT CLOUD    CLEAR     71  68  90 E7        29.89F
6HR MIN TEMP:  71; 6HR MAX TEMP:  80;

MINNEAPOLIS    CLEAR     73  69  87 E13       29.91S
6HR MIN TEMP:  73; 6HR MAX TEMP:  82;

$$

  *****  WEATHER ACROSS SOUTH DAKOTA  *****

CITY           SKY/WX    TMP DP  RH WIND       PRES   REMARKS
SIOUX FALLS    PTCLDY    77  71  82 SE9       29.81R
6HR MIN TEMP:  77; 6HR MAX TEMP:  83;

BROOKINGS      PTCLDY    75  70  83 SE14      29.82F
WATERTOWN      PTCLDY    75  71  87 SE7       29.80F
6HR MIN TEMP:  75; 6HR MAX TEMP:  85;

HURON          CLOUDY    76  72  87 SE10      29.72F
6HR MIN TEMP:  76; 6HR MAX TEMP:  86;

SISSETON         N/A     75  74  96 S5        29.78S
ABERDEEN       PTCLDY    74  70  87 SE7       29.74F
6HR MIN TEMP:  73; 6HR MAX TEMP:  87;

MITCHELL       CLOUDY    78  72  81 SE9       29.74S
PIERRE         MOCLDY    75  70  84 SE8       29.68S
6HR MIN TEMP:  75; 6HR MAX TEMP:  87;

MOBRIDGE       CLOUDY    74  72  93 E7        29.70S
RAPID CITY     CLOUDY    71  53  52 SE9       29.78S
6HR MIN TEMP:  71; 6HR MAX TEMP:  87;

$$

  *****  SOME WEATHER IN NEARBY STATES *****

CITY           SKY/WX    TMP DP  RH WIND       PRES   REMARKS
GLASGOW MT     MOCLDY    64  36  35 NE24G36   29.83F
6HR MIN TEMP:  64; 6HR MAX TEMP:  77;

GREAT FALLS MT LGT RAIN  49  48  97 E7        30.00S
6HR MIN TEMP:  49; 6HR MAX TEMP:  52; 6HR PCP:  0.41;

CHEYENNE WY    CLEAR     56  46  69 W14       30.02S
6HR MIN TEMP:  54; 6HR MAX TEMP:  71; 6HR PCP: TRACE;

SCOTTSBLUFF NE CLOUDY    66  60  81 CALM      29.87F
6HR MIN TEMP:  66; 6HR MAX TEMP:  82; 6HR PCP:  0.01;

OMAHA NE       PTCLDY    79  68  69 S14       29.85S
6HR MIN TEMP:  79; 6HR MAX TEMP:  88;

DES MOINES IA  PTCLDY    78  68  71 SE7       29.92R
6HR MIN TEMP:  77; 6HR MAX TEMP:  86;

DAVENPORT IA   CLEAR     71  69  93 S3        29.94R
6HR MIN TEMP:  71; 6HR MAX TEMP:  84;

CHICAGO IL     PTCLDY    71  67  87 NE8       29.97R
6HR MIN TEMP:  71; 6HR MAX TEMP:  76;

EAU CLAIRE WI  PTCLDY    70  64  81 E6        29.96S
6HR MIN TEMP:  70; 6HR MAX TEMP:  77;

LA CROSSE WI   CLEAR     73  67  81 SE6       29.95R
6HR MIN TEMP:  73; 6HR MAX TEMP:  84;

$$

  *****  SOME NATIONAL WEATHER *****

CITY           SKY/WX    TMP DP  RH WIND       PRES   REMARKS
LA GUARDIA NY  MOCLDY    80  67  64 N6        29.90R
6HR MIN TEMP:  80; 6HR MAX TEMP:  86;

RALEIGH NC     PTCLDY    70  67  90 CALM      29.92F
6HR MIN TEMP:  70; 6HR MAX TEMP:  79;

ATLANTA GA     PTCLDY    71  67  87 NW3       29.97F
6HR MIN TEMP:  71; 6HR MAX TEMP:  75;

NEW ORLEANS LA PTCLDY    78  73  84 SE3       29.94F
6HR MIN TEMP:  78; 6HR MAX TEMP:  82;

OKLAHOMA CITY  MOCLDY    72  64  76 SE8       29.92R
6HR MIN TEMP:  71; 6HR MAX TEMP:  89;

ALBUQUERQUE NM CLOUDY    75  48  38 S8        30.10S
6HR MIN TEMP:  75; 6HR MAX TEMP:  86;

SALT LAKE CITY PTCLDY    77  35  21 S13       29.78R
6HR MIN TEMP:  77; 6HR MAX TEMP:  89;




USA.gov is the U.S. government's official web portal to all federal, state and local government web resources and services.